Weather History for Omaha Offutt, NE

Change the Weather History Date:

Sunday, February 2, 2014

  Actual Average Record
Temperature  
Mean Temperature 12 °F -  
Max Temperature 26 °F 34 °F 55 °F (2006)
Min Temperature -1 °F 17 °F -9 °F (2001)
Degree Days  
Heating Degree Days 52    
Moisture  
Dew Point 4 °F    
Average Humidity 73    
Maximum Humidity 88    
Minimum Humidity 48    
Precipitation  
Precipitation 0.00 in - - ()
Sea Level Pressure  
Sea Level Pressure 30.39 in    
Wind  
Wind Speed 5 mph (SW)    
Max Wind Speed 12 mph    
Max Gust Speed -    
Visibility 10 miles    
Events      
Averages and records for this station are not official NWS values.
T = Trace of Precipitation, MM = Missing Value Source: NWS Daily Summary

Daily Weather History Graph

Daily Weather History Graph

Search for Another Location

Airport:

Trip Planner

Search our weather history database for the weather conditions in past years. The results will help you decide how hot, cold, wet, or windy it might be!

Date:

Astronomy

Feb. 02, 2014 Rise Set
Actual Time 7:33 AM CST 5:41 PM CST
Civil Twilight 7:04 AM CST 6:10 PM CST
Nautical Twilight 6:31 AM CST 6:43 PM CST
Astronomical Twilight 5:59 AM CST 7:16 PM CST
Moon 8:58 AM CST (2/2) 9:29 PM CST (2/2)
Length of Visible Light 11h 06m
Length of Day
10h 08m
Waxing Crescent, 11% of the Moon is Illuminated
Feb 2
Waxing Crescent
Feb 6
First Quarter
Feb 14
Full
Feb 22
Last Quarter
Mar 1
New

Hourly Weather History & Observations

Time (CST) Temp. Windchill Dew Point Humidity Pressure Visibility Wind Dir Wind Speed Gust Speed Precip Events Conditions
12:58 AM 10.4 °F 2.2 °F 3.7 °F 74% 30.38 in 10.0 mi North 4.6 mph - N/A   Clear
1:58 AM 9.5 °F -1.5 °F 2.8 °F 74% 30.39 in 10.0 mi North 6.9 mph - N/A   Clear
2:58 AM 6.3 °F -2.6 °F 0.5 °F 77% 30.40 in 10.0 mi NNW 4.6 mph - N/A   Clear
3:58 AM 0.9 °F - -2.4 °F 86% 30.41 in 10.0 mi NW 1.2 mph - N/A   Clear
4:58 AM 1.8 °F - -1.7 °F 86% 30.42 in 10.0 mi WNW 1.2 mph - N/A   Clear
5:58 AM 0.1 °F - -3.5 °F 85% 30.42 in 10.0 mi Calm Calm - N/A   Clear
6:58 AM -1.3 °F -11.4 °F -4.0 °F 88% 30.42 in 10.0 mi WNW 4.6 mph - N/A   Clear
7:58 AM -1.1 °F - -4.4 °F 86% 30.46 in 10.0 mi SSW 2.3 mph - N/A   Clear
8:58 AM 4.3 °F - 1.0 °F 86% 30.46 in 10.0 mi West 1.2 mph - N/A   Clear
9:58 AM 10.9 °F 4.7 °F 5.4 °F 78% 30.48 in 10.0 mi South 3.5 mph - N/A   Clear
10:58 AM 14.7 °F 7.3 °F 5.5 °F 67% 30.45 in 10.0 mi West 4.6 mph - N/A   Clear
11:58 AM 18.9 °F 8.0 °F 7.5 °F 61% 30.43 in 10.0 mi NW 9.2 mph - N/A   Clear
12:58 PM 21.7 °F 14.3 °F 7.9 °F 55% 30.40 in 10.0 mi Variable 5.8 mph - N/A   Clear
1:58 PM 23.9 °F - 8.2 °F 51% 30.36 in 10.0 mi West 2.3 mph - N/A   Clear
2:58 PM 25.7 °F 19.0 °F 9.9 °F 51% 30.35 in 10.0 mi SW 5.8 mph - N/A   Clear
3:58 PM 26.6 °F 19.1 °F 9.3 °F 48% 30.35 in 10.0 mi South 6.9 mph - N/A   Clear
4:58 PM 26.1 °F 15.6 °F 11.7 °F 55% 30.34 in 10.0 mi South 11.5 mph - N/A   Clear
5:58 PM 19.6 °F 7.4 °F 10.8 °F 69% 30.34 in 10.0 mi South 11.5 mph - N/A   Clear
6:58 PM 16.2 °F 5.5 °F 8.6 °F 72% 30.35 in 10.0 mi South 8.1 mph - N/A   Clear
7:58 PM 12.6 °F 4.8 °F 7.0 °F 78% 30.35 in 10.0 mi South 4.6 mph - N/A   Clear
8:58 PM 9.0 °F 2.4 °F 4.1 °F 81% 30.35 in 10.0 mi SE 3.5 mph - N/A   Clear
9:58 PM 9.9 °F 1.6 °F 4.8 °F 80% 30.35 in 10.0 mi SSE 4.6 mph - N/A   Clear
10:58 PM 3.6 °F - 0.5 °F 87% 30.33 in 10.0 mi South 2.3 mph - N/A   Clear
11:58 PM 4.5 °F -4.7 °F 1.4 °F 87% 30.33 in 10.0 mi SE 4.6 mph - N/A   Clear